Waarnemingen

Advertentie
Mijn weer
Mierkenis, Zweden (2121): temperatuur & dauwpunt: 11.10.2018 22:00:00 - 17.10.2018 22:00:00 (CEST)Mierkenis, Zweden (2121): windsnelheid & windstoten: 11.10.2018 22:00:00 - 17.10.2018 22:00:00 (CEST)Mierkenis, Zweden (2121): windrichting: 11.10.2018 22:00:00 - 17.10.2018 22:00:00 (CEST)Mierkenis, Zweden (2121): luchtdruk: 11.10.2018 22:00:00 - 17.10.2018 22:00:00 (CEST)Mierkenis, Zweden (2121): zicht: 11.10.2018 22:00:00 - 17.10.2018 22:00:00 (CEST)Mierkenis, Zweden (2121): neerslag: 11.10.2018 22:00:00 - 17.10.2018 22:00:00 (CEST)
Datum & Tijd tt [°C] td [°C] ff [km/u] ff [kn] fx [km/u] fx [kn] dd ppp [hPa] vv [km] rr [mm]
17.10.2018 22:00:00 1,6 0,9 4 2 18 10 ZO 1007,0 50 0,0
17.10.2018 21:00:00 1,8 0,9 4 2 18 10 ZZO 1007,1 50 0,0
17.10.2018 20:00:00 2,8 1,6 8 5 18 10 OZO 1007,3 42 0,0
17.10.2018 19:00:00 - - - - - - - - - -
17.10.2018 18:00:00 3,4 1,3 9 5 20 11 OZO 1007,2 50 0,0
17.10.2018 17:00:00 3,5 1,2 10 5 16 9 ZO 1007,6 50 0,0
17.10.2018 16:00:00 3,8 1,3 9 5 16 9 ZO 1007,7 50 0,0
17.10.2018 15:00:00 3,6 1,3 11 6 20 11 ZO 1007,9 50 0,0
17.10.2018 14:00:00 3,4 1,4 9 5 20 11 ZZO 1008,3 50 0,0
17.10.2018 13:00:00 3,1 1,1 10 5 21 11 ZO 1008,8 50 0,0
17.10.2018 12:00:00 2,9 1,1 11 6 21 11 ZO 1009,1 50 0,0
17.10.2018 11:00:00 3,0 0,9 10 6 17 9 ZO 1009,3 50 0,0
17.10.2018 10:00:00 2,6 0,8 8 4 20 11 ZZO 1009,4 50 0,0
17.10.2018 09:00:00 2,4 0,8 8 5 21 11 ZO 1009,3 50 0,0
17.10.2018 08:00:00 2,5 0,7 13 7 21 11 OZO 1009,9 50 0,0
17.10.2018 07:00:00 2,5 0,6 11 6 20 11 ZO 1009,6 50 0,0
17.10.2018 06:00:00 2,4 0,3 5 3 24 13 ZZO 1010,5 50 0,0
17.10.2018 05:00:00 2,4 0,1 10 5 29 16 ZO 1010,7 37 0,0
17.10.2018 04:00:00 2,6 0,3 18 10 29 16 ZZO 1011,1 50 0,0
17.10.2018 03:00:00 2,4 0,1 14 8 31 17 OZO 1012,2 50 0,0
17.10.2018 02:00:00 2,6 -0,2 18 10 31 17 OZO 1012,6 50 0,0
17.10.2018 01:00:00 2,6 -0,3 18 10 29 16 OZO 1013,6 50 0,0
17.10.2018 00:00:00 2,8 -0,5 16 9 23 12 OZO 1014,5 48 0,0
16.10.2018 23:00:00 1,7 -0,4 8 4 21 12 ZO 1014,7 50 0,0
16.10.2018 22:00:00 2,7 -0,2 13 7 21 12 OZO 1015,1 47 0,0
16.10.2018 21:00:00 2,8 -0,5 11 6 21 11 OZO 1015,9 45 0,0
16.10.2018 20:00:00 2,0 -0,4 5 3 16 8 ZZO 1016,2 50 0,0
16.10.2018 19:00:00 2,2 -0,4 3 2 8 5 Z 1016,0 45 0,0
16.10.2018 18:00:00 2,6 -0,3 0 0 16 8 N 1015,9 33 0,0
16.10.2018 17:00:00 3,4 -0,2 3 2 17 9 NNW 1015,7 50 0,0
16.10.2018 16:00:00 4,2 -0,4 8 4 21 11 NW 1015,4 50 0,0
16.10.2018 15:00:00 4,5 -0,8 8 5 21 11 NW 1014,9 50 0,0
16.10.2018 14:00:00 5,1 -1,1 7 4 21 11 WNW 1014,4 47 0,0
16.10.2018 13:00:00 4,3 -1,5 9 5 28 15 NNW 1014,6 50 0,0
16.10.2018 12:00:00 4,8 -2,5 9 5 28 15 NW 1013,8 47 0,0
16.10.2018 11:00:00 4,9 -1,6 9 5 28 15 WNW 1013,0 46 0,0
16.10.2018 10:00:00 4,1 -0,1 6 3 19 10 N 1012,8 50 0,0
16.10.2018 09:00:00 3,4 -0,8 5 3 23 12 NW 1012,4 50 0,0
16.10.2018 08:00:00 2,5 -0,8 9 5 23 12 NW 1012,1 50 0,0
16.10.2018 07:00:00 2,1 -0,2 6 3 14 7 W 1012,2 24 0,1
16.10.2018 06:00:00 -0,7 -2,1 3 1 11 6 ZO 1012,1 50 0,0
16.10.2018 05:00:00 -0,1 -2,3 3 2 11 6 NNO 1011,9 50 0,0
16.10.2018 04:00:00 0,2 -2,3 4 2 31 17 ONO 1012,1 50 0,0
16.10.2018 03:00:00 1,5 -2,3 5 3 31 17 ZO 1012,0 50 0,0
16.10.2018 02:00:00 3,5 -2,1 13 7 24 13 N 1011,9 50 0,0
16.10.2018 01:00:00 -1,0 -2,4 3 2 10 6 OZO 1012,8 50 0,0
16.10.2018 00:00:00 -1,0 -2,6 3 2 10 5 NW 1012,8 50 0,0
15.10.2018 23:00:00 -1,0 -2,1 4 2 10 5 NNW 1012,9 50 0,0
15.10.2018 22:00:00 -0,3 -1,4 4 2 11 6 O 1013,0 50 0,0
15.10.2018 21:00:00 0,2 -1,2 6 3 11 6 NW 1013,2 50 0,0
15.10.2018 20:00:00 -0,2 -1,2 5 3 8 5 WNW 1013,4 50 0,0
15.10.2018 19:00:00 -0,4 -1,4 0 0 8 5 N 1013,6 50 0,0
15.10.2018 18:00:00 1,4 -0,5 0 0 9 5 N 1013,4 50 0,0
15.10.2018 17:00:00 3,2 0,1 4 2 13 7 ZW 1012,7 50 0,0
15.10.2018 16:00:00 4,6 -0,4 7 4 13 7 NNW 1012,5 50 0,0
15.10.2018 15:00:00 5,0 0,0 2 1 19 10 W 1012,2 50 0,0
15.10.2018 14:00:00 4,9 0,5 7 4 27 15 WNW 1012,2 50 0,0
15.10.2018 13:00:00 4,9 0,5 10 5 29 16 WNW 1011,7 50 0,0
15.10.2018 12:00:00 4,9 1,0 21 11 29 16 NNW 1011,4 50 0,0
15.10.2018 11:00:00 4,2 1,4 15 8 27 15 NNW 1010,9 43 0,0
15.10.2018 10:00:00 3,9 1,3 11 6 27 15 NNW 1010,4 48 0,0
15.10.2018 09:00:00 2,7 1,1 17 9 23 13 NW 1009,7 48 0,0
15.10.2018 08:00:00 2,5 1,0 6 3 29 16 NNW 1008,9 50 0,0
15.10.2018 07:00:00 2,6 0,8 10 5 36 20 NNW 1007,8 50 0,0
15.10.2018 06:00:00 2,6 1,0 15 8 36 20 NW 1007,1 50 0,0
15.10.2018 05:00:00 3,2 1,4 19 11 37 20 NW 1006,1 24 0,0
15.10.2018 04:00:00 4,1 2,3 19 10 37 20 NW 1004,3 21 0,2
15.10.2018 03:00:00 5,2 4,0 17 9 32 18 NNW 1003,0 17 0,1
15.10.2018 02:00:00 7,2 5,2 2 1 14 7 NNO 1000,9 39 0,0
15.10.2018 01:00:00 7,3 6,1 2 1 11 6 ONO 1000,7 47 0,0
15.10.2018 00:00:00 6,7 6,0 8 5 24 13 WNW 1001,0 13 0,0
14.10.2018 23:00:00 8,2 5,7 4 2 27 15 WZW 1000,8 15 0,0
14.10.2018 22:00:00 9,6 5,8 9 5 35 19 NW 1000,2 50 0,0
14.10.2018 21:00:00 10,0 6,3 15 8 35 19 WNW 1000,5 43 0,1
14.10.2018 20:00:00 9,5 7,8 8 4 26 14 NW 1000,7 12 0,0
14.10.2018 19:00:00 11,2 8,8 10 6 26 14 NW 999,5 10 0,3
14.10.2018 18:00:00 13,4 10,2 9 5 19 10 OZO 998,6 50 0,0
14.10.2018 17:00:00 11,5 9,7 3 2 16 9 ZO 999,5 49 0,0
14.10.2018 16:00:00 12,3 9,7 8 4 16 9 ZZO 999,7 50 0,0
14.10.2018 15:00:00 12,9 9,9 4 2 16 9 ZZO 1000,2 50 0,0
14.10.2018 14:00:00 12,1 9,7 4 2 16 9 OZO 1000,7 50 0,0
14.10.2018 13:00:00 10,1 9,5 4 2 11 6 ONO 1001,3 50 0,0
14.10.2018 12:00:00 7,7 7,4 6 3 11 6 WNW 1002,3 1,0 0,0
14.10.2018 11:00:00 7,1 6,8 0 0 14 7 N 1002,3 40 0,0
14.10.2018 10:00:00 5,8 5,5 5 3 16 9 WNW 1002,7 50 0,0
14.10.2018 09:00:00 5,3 5,0 8 4 16 9 NNO 1003,1 26 0,0
14.10.2018 08:00:00 4,5 4,2 4 2 11 6 Z 1003,4 2,5 0,0
14.10.2018 07:00:00 4,6 4,3 5 3 11 6 NNW 1004,3 44 0,0
14.10.2018 06:00:00 4,5 4,2 4 2 10 5 N 1004,4 49 0,0
14.10.2018 05:00:00 4,5 4,2 5 3 11 6 N 1005,3 13 0,4
14.10.2018 04:00:00 4,6 4,3 2 1 11 6 NW 1005,4 7 3,0
14.10.2018 03:00:00 4,6 4,3 8 4 11 6 NW 1006,1 6 1,3
14.10.2018 02:00:00 4,9 4,6 4 2 8 4 WNW 1006,3 3,5 0,4
14.10.2018 01:00:00 5,1 4,8 5 3 8 5 WNW 1006,8 3,9 0,7
14.10.2018 00:00:00 5,7 5,6 2 1 8 5 NNW 1007,0 0,5 0,6
13.10.2018 23:00:00 5,9 5,6 6 3 16 9 ZO 1007,3 0,3 0,2
13.10.2018 22:00:00 6,0 5,7 5 3 16 9 ZZO 1008,1 0,2 0,2
13.10.2018 21:00:00 5,5 5,1 5 3 11 6 ZO 1008,7 6 0,5
13.10.2018 20:00:00 6,5 6,1 5 3 15 8 ONO 1008,5 6 0,0
13.10.2018 19:00:00 6,5 6,1 9 5 16 8 ZO 1008,9 9 0,0
13.10.2018 18:00:00 6,7 5,8 6 3 24 13 ZO 1008,4 8 0,0
13.10.2018 17:00:00 7,5 5,8 13 7 24 13 O 1007,5 16 0,7
13.10.2018 16:00:00 7,4 5,7 14 8 20 11 O 1007,7 21 0,0
13.10.2018 15:00:00 7,6 5,7 7 4 13 7 ZO 1007,4 19 0,0
13.10.2018 14:00:00 6,8 5,6 4 2 18 10 ZZW 1007,7 14 0,0
13.10.2018 13:00:00 6,3 5,4 8 4 21 11 OZO 1007,3 14 0,0
13.10.2018 12:00:00 5,7 5,0 8 5 21 11 OZO 1007,1 11 0,0
13.10.2018 11:00:00 5,2 4,6 8 4 19 10 ZZO 1007,7 10 0,0
13.10.2018 10:00:00 4,9 4,5 4 2 19 10 ZZW 1007,9 6 0,0
13.10.2018 09:00:00 4,3 3,9 5 3 18 10 ZW 1008,5 6 0,0
13.10.2018 08:00:00 4,6 4,3 9 5 19 10 OZO 1007,2 9 0,0
13.10.2018 07:00:00 4,3 4,2 10 6 29 16 ZO 1008,0 1,8 0,0
13.10.2018 06:00:00 3,9 3,8 15 8 33 18 ZO 1008,5 1,9 0,0
13.10.2018 05:00:00 3,5 3,4 18 10 33 18 ZO 1009,3 7 0,0
13.10.2018 04:00:00 3,5 3,2 20 11 33 18 ZO 1010,2 7 0,0
13.10.2018 03:00:00 3,4 3,0 12 6 29 16 ZO 1011,0 13 0,0
13.10.2018 02:00:00 3,5 2,9 13 7 29 16 ZO 1012,1 7 0,0
13.10.2018 01:00:00 3,7 3,0 15 8 27 15 ZO 1012,6 10 0,0
13.10.2018 00:00:00 3,6 2,9 10 5 16 9 ZZO 1013,0 16 0,0
12.10.2018 23:00:00 3,4 2,8 7 4 19 10 ZZO 1013,8 28 0,0
12.10.2018 22:00:00 3,6 3,0 9 5 26 14 ZZO 1015,0 26 0,0
12.10.2018 21:00:00 3,7 3,1 11 6 27 14 ZO 1015,8 15 0,0
12.10.2018 20:00:00 3,8 3,2 16 8 27 14 ZO 1015,4 6 0,0
12.10.2018 19:00:00 4,2 3,6 16 9 28 15 ZO 1014,9 9 0,0
12.10.2018 18:00:00 4,6 3,7 16 9 28 15 ZO 1015,6 45 0,0
12.10.2018 17:00:00 4,9 3,7 16 9 27 15 ZO 1016,4 32 0,0
12.10.2018 16:00:00 5,2 4,2 15 8 23 13 ZO 1017,0 37 0,0
12.10.2018 15:00:00 5,2 4,5 13 7 22 12 ZO 1017,3 11 0,0
12.10.2018 14:00:00 5,4 4,5 12 7 23 12 ZO 1017,5 19 0,0
12.10.2018 13:00:00 5,3 5,0 16 8 23 12 ZO 1018,0 4,8 0,0
12.10.2018 12:00:00 5,1 5,0 8 5 13 7 ZZO 1018,5 4,1 0,0
12.10.2018 11:00:00 4,8 4,7 6 3 10 5 ZZO 1018,9 0,6 0,0
12.10.2018 10:00:00 4,3 4,2 0 0 7 4 N 1019,2 0,7 0,0
12.10.2018 09:00:00 3,6 3,5 3 2 6 3 Z 1019,3 1,0 0,0
12.10.2018 08:00:00 3,4 3,3 3 1 5 3 ZO 1019,1 0,5 0,1
12.10.2018 07:00:00 3,0 2,7 0 0 7 4 N 1018,9 1,7 0,6
12.10.2018 06:00:00 2,8 2,5 3 1 7 4 ZW 1019,0 1,3 0,0
12.10.2018 05:00:00 2,9 2,6 3 1 7 4 Z 1019,1 0,7 0,0
12.10.2018 04:00:00 3,1 3,0 3 2 7 4 NNW 1019,4 1,6 0,0
12.10.2018 03:00:00 2,8 2,5 4 2 8 5 W 1019,8 2,8 0,0
12.10.2018 02:00:00 2,8 2,5 5 3 8 5 NNW 1019,9 2,1 0,0
12.10.2018 01:00:00 3,3 3,0 2 1 7 4 NO 1020,8 2,3 0,0
12.10.2018 00:00:00 3,0 2,4 0 0 5 3 N 1021,1 15 0,0
11.10.2018 23:00:00 2,9 2,5 3 1 6 3 O 1021,8 31 0,0
11.10.2018 22:00:00 2,4 2,0 3 2 6 3 W 1022,0 28 0,0

tt = temperatuur
td = dauwpunt
ff = windsnelheid
fx = windstoten
dd = windrichting
ppp = luchtdruk
vv = zicht
rr = neerslag

Weerstations in de omgeving